{"data":{"norad_id":57353,"intl_designator":"2023-099AB","name":"STARLINK-6324","alt_names":[],"object_type":"PAYLOAD","status":"ACTIVE","operator":null,"country":"US","launch_date":"2023-07-16","launch_site_code":"AFETR","launch_vehicle":null,"mission":null,"orbit_class":"UNKNOWN","rcs_meters":null,"size_class":null,"mass_kg":null,"dimensions":null,"purposes":["comms"],"wikipedia_slug":null,"has_3d_model":false,"image_url":null,"decayed_at":null,"tle_current":{"epoch":"2026-09-20T06:12:03.408192Z","epoch_age_seconds":145161,"freshness":"FRESH","line1":"1 57353U 23099AB  26263.25837278 -.00000387  00000+0 -45353-5 0  9991","line2":"2 57353  43.0016 230.1299 0001528 261.7370  98.3308 15.27575178175874","mean_motion":15.27575178,"eccentricity":0.0001528,"inclination_deg":43.0016,"raan_deg":230.1299,"arg_perigee_deg":261.737,"mean_anomaly_deg":98.3308,"bstar":-4.5353e-6,"rev_number":17587,"period_min":94.267046279538,"perigee_km":482.01514343861,"apogee_km":484.11192632207,"semimajor_km":6861.2005348803,"source":"CELESTRAK","updated_at":"2026-09-21T09:00:33.601012Z"}}}